Regional Weather Roundup
Issued by NWS Sioux Falls, SD

Home | Current Version | Previous Version | Graphics & Text | Print | Product List | Glossary On
Versions: 1 2 3 4 5 6 7 8 9 10 11 12 13 14 15 16 17 18 19 20 21 22 23 24 25 26 27 28 29 30 31 32 33 34 35 36 37 38 39 40 41 42 43 44 45 46 47 48 49 50
000
ASUS43 KFSD 291110
RWRFSD

WEATHER ROUNDUP FOR SE SOUTH DAKOTA/SW MINNESOTA/NW IOWA
NATIONAL WEATHER SERVICE SIOUX FALLS SD
600 AM CDT SAT APR 29 2017

NOTE: "FAIR" INDICATES FEW OR NO CLOUDS BELOW 12,000 FEET WITH NO
SIGNIFICANT WEATHER AND OR OBSTRUCTIONS TO VISIBILITY.


SDZ038>040-050-052>070-291200-
SOUTHEAST SOUTH DAKOTA

CITY           SKY/WX    TMP DP  RH WIND       PRES   REMARKS
BROOKINGS      MOCLDY    32  22  66 NE3       30.20R
CHAMBERLAIN    CLOUDY    36  23  58 NW7       30.18R
HURON          PTCLDY    23  20  88 N5        30.19F WCI  17
MADISON        FAIR      32  23  69 NE9       30.18R WCI  24
MITCHELL       CLOUDY    32  24  72 N8        30.18S WCI  25
SIOUX FALLS    MOCLDY    37  25  61 NE12      30.17S
WINNER         FAIR      32  23  69 N6        30.17R WCI  26
YANKTON        CLOUDY    39  25  56 NE12      30.16R
$$

MNZ071-072-080-081-089-090-097-098-291200-
SOUTHWEST MINNESOTA

CITY           SKY/WX    TMP DP  RH WIND       PRES   REMARKS
FAIRMONT       CLOUDY    37  29  72 NE10      30.21R
JACKSON        CLOUDY    36  30  80 NE10      30.17R
LUVERNE        CLOUDY    36  25  64 NE12      30.16F
MARSHALL       MOCLDY    31  25  78 CALM      30.23R
MONTEVIDEO     MOCLDY    30  23  74 CALM      30.24R
PIPESTONE      CLOUDY    37  19  48 E7        30.17F
REDWOOD FALLS  CLOUDY    37  26  64 E6        30.25R
TRACY          MOCLDY    33  27  77 N6        30.21R WCI  28
WINDOM         CLOUDY    36  27  69 N9        30.18S
WORTHINGTON    CLOUDY    34  26  72 NE13      30.16S WCI  25
$$

IAZ001>003-012>014-020>022-031-032-NEZ013-014-SDZ071-291200-
NORTHWEST IOWA

CITY           SKY/WX    TMP DP  RH WIND       PRES   REMARKS
CHEROKEE       CLOUDY    38  32  78 NE5       30.15R
DENISON        CLOUDY    39  32  75 NE15G21   30.08F
ESTHERVILLE    CLOUDY    35  31  85 NE13      30.17R WCI  26
LE MARS        CLOUDY    39  28  65 NE7       30.17R
ORANGE CITY    CLOUDY    37  28  70 NE5       30.15R
SHELDON        CLOUDY    36  28  75 NE13      30.13F
SIOUX CITY     MOCLDY    42  29  59 NE13      30.14R
SPENCER        CLOUDY    37  30  75 NE10      30.15R
STORM LAKE     PTCLDY    37  32  81 NE14      30.12R
$$

ABBREVIATIONS USED IN REMARKS
   TC - TEMPERATURE IN CELSIUS
  WCI - WIND CHILL INDEX
   HX - HEAT INDEX
  VSB - VISIBILITY





USA.gov is the U.S. government's official web portal to all federal, state and local government web resources and services.